Location: Roland
(31.1349°N, 85.4372°W)
Time: 18:40:34
(UTC+00:00)

Vanguard 2 Rocket - Pass Details

Date: 25 April 2021
Orbit: 554 x 3326 km, 32.9° (Epoch: 13 May)

Event Time Altitude Azimuth Distance (km) Brightness Sun altitude
Rises 01:58:43 0° 283° (WNW) 7,128 12.8 -20.9°
Reaches altitude 10° 02:05:45 10° 270° (W) 5,772 11.7 -22.2°
Maximum altitude 02:16:07 20° 231° (SW) 4,233 10.4 -24.0°
Drops below altitude 10° 02:24:00 10° 190° (S) 4,218 10.0 -25.4°
Enters shadow 02:25:24 - 184° (S) 4,362 10.1 -25.6°
